Location: Champs
(48.8539°N, 2.6040°E)
Time: 17:58:22
(UTC+00:00)

Cosmos 2056 Rocket - Pass Details

Date: 30 May 2022
Orbit: 741 x 801 km, 74.0° (Epoch: 01 July)

Event Time Altitude Azimuth Distance (km) Brightness Sun altitude
Exits shadow 02:52:43 - 199° (SSW) 2,478 5.6 -8.2°
Reaches altitude 10° 02:53:13 10° 199° (SSW) 2,284 5.4 -8.1°
Maximum altitude 02:58:25 86° 111° (ESE) 778 3.6 -7.5°
Drops below altitude 10° 03:03:44 10° 24° (NNE) 2,342 7.4 -6.9°
Sets 03:06:09 0° 24° (NNE) 3,283 8.3 -6.6°
